Regional Weather Roundup
Issued by NWS

Home | Current Version | Previous Version | Graphics & Text | Print | Product List | Glossary On
Versions: 1 2 3 4 5 6 7 8 9 10 11 12 13 14 15 16 17 18 19 20 21 22 23 24 25 26 27 28 29 30 31 32 33 34 35 36 37 38 39 40 41 42 43 44 45 46 47 48 49 50
276
ASUS45 KTFX 212110
RWRMT
MONTANA REGIONAL WEATHER ROUNDUP
NATIONAL WEATHER SERVICE GREAT FALLS MT
200 PM MST SAT JAN 21 2017

NOTE: "FAIR" INDICATES FEW OR NO CLOUDS BELOW 12000 FEET WITH NO
SIGNIFICANT WEATHER AND/OR OBSTRUCTIONS TO VISIBILITY.

MTZ001>007-043-212200-
WEST OF THE DIVIDE

CITY           SKY/WX    TMP DP  RH WIND       PRES   REMARKS
KALISPELL      PTSUNNY   28  22  78 CALM      29.53R
MISSOULA       LGT SNOW  25  24  96 CALM      29.56R VSB 3/4
BUTTE          MOSUNNY   30  17  58 CALM      29.45R
MULLAN PASS    FOG       25  24  96 VRB3      29.43R VSB 1/2
ANACONDA         N/A     28  18  64 N6        29.47R WCI  22
DEER LODGE       N/A     27  18  69 CALM      29.52R
EUREKA           N/A     28  21  74 CALM      29.57R
HAMILTON         N/A     28  21  74 CALM      29.53R
PLAINS           N/A     26  22  85 CALM      29.59R
RONAN            N/A     24  21  88 CALM      29.62R
$$

MTZ008-052>055-212200-
SOUTHWEST MONTANA

CITY           SKY/WX    TMP DP  RH WIND       PRES   REMARKS
BOZEMAN        CLOUDY    26  15  63 CALM      29.49R
DILLON         CLOUDY    38  17  42 S9        29.46R WCI  31
W YELLOWSTONE  CLOUDY    25  19  80 CALM      29.47R
ENNIS          CLOUDY    32  23  69 SE5       29.50R
TWIN BRIDGES     N/A     26  14  60 E3        29.54R
$$

MTZ009-010-012-014-046-048-049-054-212200-
EAST SLOPES AND CENTRAL MONTANA

CITY           SKY/WX    TMP DP  RH WIND       PRES   REMARKS
CUT BANK       MOSUNNY   35  23  61 NW9       29.46R WCI  28
GREAT FALLS    CLOUDY    34  21  59 W6        29.46R WCI  29
MALMSTROM AFB  CLOUDY    33  23  68 SW7       29.47R WCI  26
HELENA         SUNNY     21  13  71 CALM      29.50R
AUGUSTA        CLOUDY    33  20  59 N7        29.44R WCI  27
BOWMANS CRNR     N/A     29  19  67 CALM      29.43R
CHOTEAU          N/A     34  23  64 N9        29.47R WCI  26
CONRAD           N/A     32  26  78 W5        29.53R
RAYNESFORD       N/A     36  21  55 NW5       29.45R
$$

MTZ011-013-016-021-045-047-050-051-212200-
NORTH CENTRAL MONTANA

CITY           SKY/WX    TMP DP  RH WIND       PRES   REMARKS
HAVRE          SUNNY     31  27  85 W13       29.47R WCI  21
LEWISTOWN      SUNNY     33  21  61 W3        29.42R
CHINOOK          N/A     36  27  69 W14       29.46R WCI  27
FORT BENTON      N/A     32  23  69 MISG      29.49R
GEYSER         PTSUNNY   37  23  55 E7        29.42R
GRASS RANGE      N/A     40  20  43 W14       29.38R
ROY              N/A     37  24  59 MISG      29.41R
WINIFRED         N/A     34  24  66 NW7       29.43R WCI  28
$$

MTZ017>020-022>027-061-062-212200-
NORTHEAST MONTANA

CITY           SKY/WX    TMP DP  RH WIND       PRES   REMARKS
GLASGOW        SUNNY     27  22  81 W9        29.42R WCI  18
JORDAN           N/A     41  31  67 W7        29.41R
SIDNEY         SUNNY     34  26  72 W7        29.41R WCI  28
WOLF POINT     SUNNY     27  20  75 W13       29.43R WCI  16
PLENTYWOOD       N/A     28  28 100 NW12      29.39R WCI  18
POPLAR           N/A     27  21  80 W14       29.42S WCI  15
SCOBEY           N/A     30  22  72 S7        29.41R WCI  23
$$

MTZ028>42-056>058-212200-
SOUTHCENTRAL AND SOUTHEAST MONTANA

CITY           SKY/WX    TMP DP  RH WIND       PRES   REMARKS
BAKER          SUNNY     28  24  85 W13       29.42R WCI  17
BILLINGS       CLOUDY    30  21  69 SW10      29.43S WCI  21
LIVINGSTON     CLOUDY    29  16  58 NW13      29.43R WCI  19
MILES CITY     SUNNY     25  20  81 S6        29.44S WCI  18
BIG TIMBER     PTSUNNY   34  18  51 W13       29.44R WCI  25
EKALAKA          N/A     31  25  78 SW5       29.45R
FORSYTH          N/A     23  21  93 CALM      29.45R
LAUREL           N/A     32  20  61 SW1       29.48R
$$

REGIONAL REPORTS...DAKOTAS

CITY           SKY/WX    TMP DP  RH WIND       PRES   REMARKS
WILLISTON      PTSUNNY   32  25  75 W10       29.39R WCI  24
MINOT          CLOUDY    31  27  85 SW6       29.37R WCI  25
DICKINSON      MOSUNNY   34  25  69 W14       29.35R WCI  25
BEACH            N/A     30  27  86 W16       29.43R WCI  19
CROSBY         CLOUDY    28  27  93 CALM      29.40R FOG
TIOGA          CLOUDY    28  28 100 W9        29.38R WCI  20
WATFORD CITY     N/A     32  27  80 W7        29.40R WCI  26
BISMARCK       CLOUDY    32  29  88 NW3       29.41R
GRAND FORKS    CLOUDY    37  33  85 E5        29.43R
FARGO          CLOUDY    39  34  82 E6        29.41R
BUFFALO SD       N/A     36  29  75 W10       29.34R WCI  28
RAPID CITY     SUNNY     43  30  60 N8        29.41R
$$

REGIONAL REPORTS...WYOMING/IDAHO/WASHINGTON

CITY           SKY/WX    TMP DP  RH WIND       PRES   REMARKS
GILLETTE       SUNNY     37  27  67 CALM      29.41R
SHERIDAN       SUNNY     32  21  64 N3        29.42R
BUFFALO WY     CLOUDY    34  23  64 SE5       29.40R
CODY           SUNNY     22  16  78 NE6       29.43R WCI  14
YELLOWSTONE LA   N/A     19  15  84 CALM      29.46R
IDAHO FALLS    CLOUDY    29  27  92 SW12      29.55R WCI  19
SALMON         CLOUDY    21  18  86 CALM      29.56S
BOISE          CLOUDY    37  33  85 SE7       29.61R WCI  32
SPOKANE        PTSUNNY   38  32  79 E6        29.49R
$$

REGIONAL REPORTS...ALBERTA

CITY           SKY/WX    TMP DP  RH WIND       PRES   REMARKS
EDMONTON         N/A     19  18  93 NW3       29.61R VSB 1/8
CALGARY        MOSUNNY   36  23  60 N7        29.50R WCI  30
MEDICINE HAT   FOG       25  25 100 W10       29.49R VSB 5/8 WCI  15
WATERTON GATE    N/A     39  14  35 NW1         N/A
MILK RIVER       N/A     37  25  60 NW10        N/A  WCI  30
$$

REGIONAL REPORTS...SASKATCHEWAN

CITY           SKY/WX    TMP DP  RH WIND       PRES   REMARKS
SWIFT CURRENT  FRZ RAIN  25  25 100 NW14      29.39R VSB 1/8 WCI  13
REGINA         CLOUDY    25  25 100 NW9       29.38R FOG     WCI  15
SASKATOON      CLOUDY    28  27  93 N6        29.45R FOG     WCI  22
CYPRESS HILLS    N/A     30  23  74 NW9         N/A  WCI  22
VAL MARIE        N/A     37  27  65 NW7         N/A
ROCKGLEN         N/A     27  27 100 NW10        N/A  WCI  17
$$




USA.gov is the U.S. government's official web portal to all federal, state and local government web resources and services.